User: anonymous   Login
Location: Ostrava
(49.8330°N, 18.2830°E)
Time: 12:28:27
(UTC+01:00)
Language:

NOAA 19 - Orbit

View from above orbital plane
View from above orbital plane
View from above satellite
View from above satellite

Ground track
Ground track

The orbit data is extracted from the following two-line orbital elements,

1 33591U 09005A   17328.53216415  .00000081  00000-0  69257-4 0  9995
2 33591  99.1152 297.8048 0013899 177.8184 182.3049 14.12231361453287
Epoch (UTC): 24 November 2017 12:46:18
Eccentricity: 0.0013899
inclination: 99.1152°
perigee height: 842 km
apogee height: 862 km
right ascension of ascending node: 297.8048°
argument of perigee: 177.8184°
revolutions per day: 14.12231361
mean anomaly at epoch: 182.3049°
orbit number at epoch: 45328

The dashed part of the orbit path shows where the satellite is in the earth's shadow,  

DLR